#Datum;Uhrzeit;WR;Pac;DaySum;Status;WR;Pac;DaySum;Status;Pdc1;Udc;Temp;WR;Pac;DaySum;Status;Pdc1;Udc;Temp;WR;Pac;DaySum;Status;Pdc1;Udc;Temp;WR;Pac;DaySum;Status;Pdc1;Pdc2;Udc1;Udc2;Temp;WR;Pac;DaySum;Status;Pdc1;Pdc2;Udc1;Udc2;Temp;WR;Pac;DaySum;Status;Pdc1;Udc;Temp;WR;Pac;DaySum;Status;Pdc1;Udc;Temp;WR;Pac;DaySum;Status;Pdc1;Udc;Temp
06.12.18;23:55:00;1;331;12340;0;2;0;1476;0;0;0;0;3;0;850;0;0;0;0;4;0;1174;0;0;0;0;5;0;3401;0;0;0;0;0;0;6;0;2387;0;0;0;0;0;0;7;0;1461;0;0;0;0;8;0;1494;0;0;0;0;9;0;775;0;0;0;0
06.12.18;23:50:00;1;332;12313;0;2;0;1476;0;0;0;0;3;0;850;0;0;0;0;4;0;1174;0;0;0;0;5;0;3401;0;0;0;0;0;0;6;0;2387;0;0;0;0;0;0;7;0;1461;0;0;0;0;8;0;1494;0;0;0;0;9;0;775;0;0;0;0
06.12.18;23:45:00;1;334;12285;0;2;0;1476;0;0;0;0;3;0;850;0;0;0;0;4;0;1174;0;0;0;0;5;0;3401;0;0;0;0;0;0;6;0;2387;0;0;0;0;0;0;7;0;1461;0;0;0;0;8;0;1494;0;0;0;0;9;0;775;0;0;0;0
06.12.18;23:40:00;1;361;12257;0;2;0;1476;0;0;0;0;3;0;850;0;0;0;0;4;0;1174;0;0;0;0;5;0;3401;0;0;0;0;0;0;6;0;2387;0;0;0;0;0;0;7;0;1461;0;0;0;0;8;0;1494;0;0;0;0;9;0;775;0;0;0;0
06.12.18;23:35:00;1;376;12226;0;2;0;1476;0;0;0;0;3;0;850;0;0;0;0;4;0;1174;0;0;0;0;5;0;3401;0;0;0;0;0;0;6;0;2387;0;0;0;0;0;0;7;0;1461;0;0;0;0;8;0;1494;0;0;0;0;9;0;775;0;0;0;0
06.12.18;23:30:00;1;380;12195;0;2;0;1476;0;0;0;0;3;0;850;0;0;0;0;4;0;1174;0;0;0;0;5;0;3401;0;0;0;0;0;0;6;0;2387;0;0;0;0;0;0;7;0;1461;0;0;0;0;8;0;1494;0;0;0;0;9;0;775;0;0;0;0
06.12.18;23:25:00;1;322;12163;0;2;0;1476;0;0;0;0;3;0;850;0;0;0;0;4;0;1174;0;0;0;0;5;0;3401;0;0;0;0;0;0;6;0;2387;0;0;0;0;0;0;7;0;1461;0;0;0;0;8;0;1494;0;0;0;0;9;0;775;0;0;0;0
06.12.18;23:20:00;1;319;12135;0;2;0;1476;0;0;0;0;3;0;850;0;0;0;0;4;0;1174;0;0;0;0;5;0;3401;0;0;0;0;0;0;6;0;2387;0;0;0;0;0;0;7;0;1461;0;0;0;0;8;0;1494;0;0;0;0;9;0;775;0;0;0;0
06.12.18;23:15:00;1;293;12108;0;2;0;1476;0;0;0;0;3;0;850;0;0;0;0;4;0;1174;0;0;0;0;5;0;3401;0;0;0;0;0;0;6;0;2387;0;0;0;0;0;0;7;0;1461;0;0;0;0;8;0;1494;0;0;0;0;9;0;775;0;0;0;0
06.12.18;23:10:00;1;282;12084;0;2;0;1476;0;0;0;0;3;0;850;0;0;0;0;4;0;1174;0;0;0;0;5;0;3401;0;0;0;0;0;0;6;0;2387;0;0;0;0;0;0;7;0;1461;0;0;0;0;8;0;1494;0;0;0;0;9;0;775;0;0;0;0
06.12.18;23:05:00;1;281;12060;0;2;0;1476;0;0;0;0;3;0;850;0;0;0;0;4;0;1174;0;0;0;0;5;0;3401;0;0;0;0;0;0;6;0;2387;0;0;0;0;0;0;7;0;1461;0;0;0;0;8;0;1494;0;0;0;0;9;0;775;0;0;0;0
06.12.18;23:00:00;1;321;12036;0;2;0;1476;0;0;0;0;3;0;850;0;0;0;0;4;0;1174;0;0;0;0;5;0;3401;0;0;0;0;0;0;6;0;2387;0;0;0;0;0;0;7;0;1461;0;0;0;0;8;0;1494;0;0;0;0;9;0;775;0;0;0;0
06.12.18;22:55:00;1;310;12009;0;2;0;1476;0;0;0;0;3;0;850;0;0;0;0;4;0;1174;0;0;0;0;5;0;3401;2;0;0;0;0;0;6;0;2387;2;0;0;0;0;0;7;0;1461;0;0;0;0;8;0;1494;0;0;0;0;9;0;775;0;0;0;0
06.12.18;22:50:00;1;310;11983;0;2;0;1476;0;0;0;0;3;0;850;0;0;0;0;4;0;1174;0;0;0;0;5;0;3401;2;0;0;0;0;0;6;0;2387;2;0;0;0;0;0;7;0;1461;0;0;0;0;8;0;1494;0;0;0;0;9;0;775;0;0;0;0
06.12.18;22:45:00;1;310;11957;0;2;0;1476;0;0;0;0;3;0;850;0;0;0;0;4;0;1174;0;0;0;0;5;0;3401;2;0;0;0;0;0;6;0;2387;2;0;0;0;0;0;7;0;1461;0;0;0;0;8;0;1494;0;0;0;0;9;0;775;0;0;0;0
06.12.18;22:40:00;1;350;11931;0;2;0;1476;0;0;0;0;3;0;850;0;0;0;0;4;0;1174;0;0;0;0;5;0;3401;2;0;0;0;0;0;6;0;2387;2;0;0;0;0;0;7;0;1461;0;0;0;0;8;0;1494;0;0;0;0;9;0;775;0;0;0;0
06.12.18;22:35:00;1;351;11902;0;2;0;1476;0;0;0;0;3;0;850;0;0;0;0;4;0;1174;0;0;0;0;5;0;3401;2;0;0;0;0;0;6;0;2387;2;0;0;0;0;0;7;0;1461;0;0;0;0;8;0;1494;0;0;0;0;9;0;775;0;0;0;0
06.12.18;22:30:00;1;355;11873;0;2;0;1476;0;0;0;0;3;0;850;0;0;0;0;4;0;1174;0;0;0;0;5;0;3401;2;0;0;0;0;0;6;0;2387;2;0;0;0;0;0;7;0;1461;0;0;0;0;8;0;1494;0;0;0;0;9;0;775;0;0;0;0
06.12.18;22:25:00;1;317;11843;0;2;0;1476;0;0;0;0;3;0;850;0;0;0;0;4;0;1174;0;0;0;0;5;0;3401;2;0;0;0;0;0;6;0;2387;2;0;0;0;0;0;7;0;1461;0;0;0;0;8;0;1494;0;0;0;0;9;0;775;0;0;0;0
06.12.18;22:20:00;1;344;11816;0;2;0;1476;0;0;0;0;3;0;850;0;0;0;0;4;0;1174;0;0;0;0;5;0;3401;2;0;0;0;0;0;6;0;2387;2;0;0;0;0;0;7;0;1461;0;0;0;0;8;0;1494;0;0;0;0;9;0;775;0;0;0;0
06.12.18;22:15:00;1;362;11787;0;2;0;1476;0;0;0;0;3;0;850;0;0;0;0;4;0;1174;0;0;0;0;5;0;3401;2;0;0;0;0;0;6;0;2387;2;0;0;0;0;0;7;0;1461;0;0;0;0;8;0;1494;0;0;0;0;9;0;775;0;0;0;0
06.12.18;22:10:00;1;383;11757;0;2;0;1476;0;0;0;0;3;0;850;0;0;0;0;4;0;1174;0;0;0;0;5;0;3401;2;0;0;0;0;0;6;0;2387;2;0;0;0;0;0;7;0;1461;0;0;0;0;8;0;1494;0;0;0;0;9;0;775;0;0;0;0
06.12.18;22:05:00;1;375;11725;0;2;0;1476;0;0;0;0;3;0;850;0;0;0;0;4;0;1174;0;0;0;0;5;0;3401;2;0;0;0;0;0;6;0;2387;2;0;0;0;0;0;7;0;1461;0;0;0;0;8;0;1494;0;0;0;0;9;0;775;0;0;0;0
06.12.18;22:00:00;1;348;11694;0;2;0;1476;0;0;0;0;3;0;850;0;0;0;0;4;0;1174;0;0;0;0;5;0;3401;2;0;0;0;0;0;6;0;2387;2;0;0;0;0;0;7;0;1461;0;0;0;0;8;0;1494;0;0;0;0;9;0;775;0;0;0;0
06.12.18;21:55:00;1;373;11664;0;2;0;1476;0;0;0;0;3;0;850;0;0;0;0;4;0;1174;0;0;0;0;5;0;3401;2;0;0;0;0;0;6;0;2387;2;0;0;0;0;0;7;0;1461;0;0;0;0;8;0;1494;0;0;0;0;9;0;775;0;0;0;0
06.12.18;21:50:00;1;373;11633;0;2;0;1476;0;0;0;0;3;0;850;0;0;0;0;4;0;1174;0;0;0;0;5;0;3401;2;0;0;0;0;0;6;0;2387;2;0;0;0;0;0;7;0;1461;0;0;0;0;8;0;1494;0;0;0;0;9;0;775;0;0;0;0
06.12.18;21:45:00;1;397;11602;0;2;0;1476;0;0;0;0;3;0;850;0;0;0;0;4;0;1174;0;0;0;0;5;0;3401;2;0;0;0;0;0;6;0;2387;2;0;0;0;0;0;7;0;1461;0;0;0;0;8;0;1494;0;0;0;0;9;0;775;0;0;0;0
06.12.18;21:40:00;1;518;11567;0;2;0;1476;0;0;0;0;3;0;850;0;0;0;0;4;0;1174;0;0;0;0;5;0;3401;2;0;0;0;0;0;6;0;2387;2;0;0;0;0;0;7;0;1461;0;0;0;0;8;0;1494;0;0;0;0;9;0;775;0;0;0;0
06.12.18;21:35:00;1;522;11524;0;2;0;1476;0;0;0;0;3;0;850;0;0;0;0;4;0;1174;0;0;0;0;5;0;3401;2;0;0;0;0;0;6;0;2387;2;0;0;0;0;0;7;0;1461;0;0;0;0;8;0;1494;0;0;0;0;9;0;775;0;0;0;0
06.12.18;21:30:00;1;570;11480;0;2;0;1476;0;0;0;0;3;0;850;0;0;0;0;4;0;1174;0;0;0;0;5;0;3401;2;0;0;0;0;0;6;0;2387;2;0;0;0;0;0;7;0;1461;0;0;0;0;8;0;1494;0;0;0;0;9;0;775;0;0;0;0
06.12.18;21:25:00;1;398;11438;0;2;0;1476;0;0;0;0;3;0;850;0;0;0;0;4;0;1174;0;0;0;0;5;0;3401;2;0;0;0;0;0;6;0;2387;2;0;0;0;0;0;7;0;1461;0;0;0;0;8;0;1494;0;0;0;0;9;0;775;0;0;0;0
06.12.18;21:20:00;1;367;11404;0;2;0;1476;0;0;0;0;3;0;850;0;0;0;0;4;0;1174;0;0;0;0;5;0;3401;2;0;0;0;0;0;6;0;2387;2;0;0;0;0;0;7;0;1461;0;0;0;0;8;0;1494;0;0;0;0;9;0;775;0;0;0;0
06.12.18;21:15:00;1;393;11373;0;2;0;1476;0;0;0;0;3;0;850;0;0;0;0;4;0;1174;0;0;0;0;5;0;3401;2;0;0;0;0;0;6;0;2387;2;0;0;0;0;0;7;0;1461;0;0;0;0;8;0;1494;0;0;0;0;9;0;775;0;0;0;0
06.12.18;21:10:00;1;338;11341;0;2;0;1476;0;0;0;0;3;0;850;0;0;0;0;4;0;1174;0;0;0;0;5;0;3401;2;0;0;0;0;0;6;0;2387;2;0;0;0;0;0;7;0;1461;0;0;0;0;8;0;1494;0;0;0;0;9;0;775;0;0;0;0
06.12.18;21:05:00;1;331;11313;0;2;0;1476;0;0;0;0;3;0;850;0;0;0;0;4;0;1174;0;0;0;0;5;0;3401;2;0;0;0;0;0;6;0;2387;2;0;0;0;0;0;7;0;1461;0;0;0;0;8;0;1494;0;0;0;0;9;0;775;0;0;0;0
06.12.18;21:00:00;1;274;11287;0;2;0;1476;0;0;0;0;3;0;850;0;0;0;0;4;0;1174;0;0;0;0;5;0;3401;2;0;0;0;0;0;6;0;2387;2;0;0;0;0;0;7;0;1461;0;0;0;0;8;0;1494;0;0;0;0;9;0;775;0;0;0;0
06.12.18;20:55:00;1;275;11264;0;2;0;1476;0;0;0;0;3;0;850;0;0;0;0;4;0;1174;0;0;0;0;5;0;3401;2;0;0;0;0;0;6;0;2387;2;0;0;0;0;0;7;0;1461;0;0;0;0;8;0;1494;0;0;0;0;9;0;775;0;0;0;0
06.12.18;20:50:00;1;346;11240;0;2;0;1476;0;0;0;0;3;0;850;0;0;0;0;4;0;1174;0;0;0;0;5;0;3401;2;0;0;0;0;0;6;0;2387;2;0;0;0;0;0;7;0;1461;0;0;0;0;8;0;1494;0;0;0;0;9;0;775;0;0;0;0
06.12.18;20:45:00;1;395;11211;0;2;0;1476;0;0;0;0;3;0;850;0;0;0;0;4;0;1174;0;0;0;0;5;0;3401;2;0;0;0;0;0;6;0;2387;2;0;0;0;0;0;7;0;1461;0;0;0;0;8;0;1494;0;0;0;0;9;0;775;0;0;0;0
06.12.18;20:40:00;1;524;11177;0;2;0;1476;0;0;0;0;3;0;850;0;0;0;0;4;0;1174;0;0;0;0;5;0;3401;2;0;0;0;0;0;6;0;2387;2;0;0;0;0;0;7;0;1461;0;0;0;0;8;0;1494;0;0;0;0;9;0;775;0;0;0;0
06.12.18;20:35:00;1;523;11134;0;2;0;1476;0;0;0;0;3;0;850;0;0;0;0;4;0;1174;0;0;0;0;5;0;3401;2;0;0;0;0;0;6;0;2387;2;0;0;0;0;0;7;0;1461;0;0;0;0;8;0;1494;0;0;0;0;9;0;775;0;0;0;0
06.12.18;20:30:00;1;491;11090;0;2;0;1476;0;0;0;0;3;0;850;0;0;0;0;4;0;1174;0;0;0;0;5;0;3401;2;0;0;0;0;0;6;0;2387;2;0;0;0;0;0;7;0;1461;0;0;0;0;8;0;1494;0;0;0;0;9;0;775;0;0;0;0
06.12.18;20:25:00;1;481;11049;0;2;0;1476;0;0;0;0;3;0;850;0;0;0;0;4;0;1174;0;0;0;0;5;0;3401;2;0;0;0;0;0;6;0;2387;2;0;0;0;0;0;7;0;1461;0;0;0;0;8;0;1494;0;0;0;0;9;0;775;0;0;0;0
06.12.18;20:20:00;1;483;11009;0;2;0;1476;0;0;0;0;3;0;850;0;0;0;0;4;0;1174;0;0;0;0;5;0;3401;2;0;0;0;0;0;6;0;2387;2;0;0;0;0;0;7;0;1461;0;0;0;0;8;0;1494;0;0;0;0;9;0;775;0;0;0;0
06.12.18;20:15:00;1;478;10968;0;2;0;1476;0;0;0;0;3;0;850;0;0;0;0;4;0;1174;0;0;0;0;5;0;3401;2;0;0;0;0;0;6;0;2387;2;0;0;0;0;0;7;0;1461;0;0;0;0;8;0;1494;0;0;0;0;9;0;775;0;0;0;0
06.12.18;20:10:00;1;474;10928;0;2;0;1476;0;0;0;0;3;0;850;0;0;0;0;4;0;1174;0;0;0;0;5;0;3401;2;0;0;0;0;0;6;0;2387;2;0;0;0;0;0;7;0;1461;0;0;0;0;8;0;1494;0;0;0;0;9;0;775;0;0;0;0
06.12.18;20:05:00;1;475;10889;0;2;0;1476;0;0;0;0;3;0;850;0;0;0;0;4;0;1174;0;0;0;0;5;0;3401;2;0;0;0;0;0;6;0;2387;2;0;0;0;0;0;7;0;1461;0;0;0;0;8;0;1494;0;0;0;0;9;0;775;0;0;0;0
06.12.18;20:00:00;1;482;10849;0;2;0;1476;0;0;0;0;3;0;850;0;0;0;0;4;0;1174;0;0;0;0;5;0;3401;2;0;0;0;0;0;6;0;2387;2;0;0;0;0;0;7;0;1461;0;0;0;0;8;0;1494;0;0;0;0;9;0;775;0;0;0;0
06.12.18;19:55:00;1;494;10809;0;2;0;1476;0;0;0;0;3;0;850;0;0;0;0;4;0;1174;0;0;0;0;5;0;3401;2;0;0;0;0;0;6;0;2387;2;0;0;0;0;0;7;0;1461;0;0;0;0;8;0;1494;0;0;0;0;9;0;775;0;0;0;0
06.12.18;19:50:00;1;494;10767;0;2;0;1476;0;0;0;0;3;0;850;0;0;0;0;4;0;1174;0;0;0;0;5;0;3401;2;0;0;0;0;0;6;0;2387;2;0;0;0;0;0;7;0;1461;0;0;0;0;8;0;1494;0;0;0;0;9;0;775;0;0;0;0
06.12.18;19:45:00;1;575;10725;0;2;0;1476;0;0;0;0;3;0;850;0;0;0;0;4;0;1174;0;0;0;0;5;0;3401;2;0;0;0;0;0;6;0;2387;2;0;0;0;0;0;7;0;1461;0;0;0;0;8;0;1494;0;0;0;0;9;0;775;0;0;0;0
06.12.18;19:40:00;1;577;10677;0;2;0;1476;0;0;0;0;3;0;850;0;0;0;0;4;0;1174;0;0;0;0;5;0;3401;2;0;0;0;0;0;6;0;2387;2;0;0;0;0;0;7;0;1461;0;0;0;0;8;0;1494;0;0;0;0;9;0;775;0;0;0;0
06.12.18;19:35:00;1;575;10629;0;2;0;1476;0;0;0;0;3;0;850;0;0;0;0;4;0;1174;0;0;0;0;5;0;3401;2;0;0;0;0;0;6;0;2387;2;0;0;0;0;0;7;0;1461;0;0;0;0;8;0;1494;0;0;0;0;9;0;775;0;0;0;0
06.12.18;19:30:00;1;531;10581;0;2;0;1476;0;0;0;0;3;0;850;0;0;0;0;4;0;1174;0;0;0;0;5;0;3401;2;0;0;0;0;0;6;0;2387;2;0;0;0;0;0;7;0;1461;0;0;0;0;8;0;1494;0;0;0;0;9;0;775;0;0;0;0
06.12.18;19:25:00;1;533;10536;0;2;0;1476;0;0;0;0;3;0;850;0;0;0;0;4;0;1174;0;0;0;0;5;0;3401;2;0;0;0;0;0;6;0;2387;2;0;0;0;0;0;7;0;1461;0;0;0;0;8;0;1494;0;0;0;0;9;0;775;0;0;0;0
06.12.18;19:20:00;1;537;10492;0;2;0;1476;0;0;0;0;3;0;850;0;0;0;0;4;0;1174;0;0;0;0;5;0;3401;2;0;0;0;0;0;6;0;2387;2;0;0;0;0;0;7;0;1461;0;0;0;0;8;0;1494;0;0;0;0;9;0;775;0;0;0;0
06.12.18;19:15:00;1;590;10446;0;2;0;1476;0;0;0;0;3;0;850;0;0;0;0;4;0;1174;0;0;0;0;5;0;3401;2;0;0;0;0;0;6;0;2387;2;0;0;0;0;0;7;0;1461;0;0;0;0;8;0;1494;0;0;0;0;9;0;775;0;0;0;0
06.12.18;19:10:00;1;588;10397;0;2;0;1476;0;0;0;0;3;0;850;0;0;0;0;4;0;1174;0;0;0;0;5;0;3401;2;0;0;0;0;0;6;0;2387;2;0;0;0;0;0;7;0;1461;0;0;0;0;8;0;1494;0;0;0;0;9;0;775;0;0;0;0
06.12.18;19:05:00;1;549;10348;0;2;0;1476;0;0;0;0;3;0;850;0;0;0;0;4;0;1174;0;0;0;0;5;0;3401;2;0;0;0;0;0;6;0;2387;2;0;0;0;0;0;7;0;1461;0;0;0;0;8;0;1494;0;0;0;0;9;0;775;0;0;0;0
06.12.18;19:00:00;1;553;10302;0;2;0;1476;0;0;0;0;3;0;850;0;0;0;0;4;0;1174;0;0;0;0;5;0;3401;2;0;0;0;0;0;6;0;2387;2;0;0;0;0;0;7;0;1461;0;0;0;0;8;0;1494;0;0;0;0;9;0;775;0;0;0;0
06.12.18;18:55:00;1;554;10256;0;2;0;1476;0;0;0;0;3;0;850;0;0;0;0;4;0;1174;0;0;0;0;5;0;3401;2;0;0;0;0;0;6;0;2387;2;0;0;0;0;0;7;0;1461;0;0;0;0;8;0;1494;0;0;0;0;9;0;775;0;0;0;0
06.12.18;18:50:00;1;585;10209;0;2;0;1476;0;0;0;0;3;0;850;0;0;0;0;4;0;1174;0;0;0;0;5;0;3401;2;0;0;0;0;0;6;0;2387;2;0;0;0;0;0;7;0;1461;0;0;0;0;8;0;1494;0;0;0;0;9;0;775;0;0;0;0
06.12.18;18:45:00;1;608;10160;0;2;0;1476;0;0;0;0;3;0;850;0;0;0;0;4;0;1174;0;0;0;0;5;0;3401;2;0;0;0;0;0;6;0;2387;2;0;0;0;0;0;7;0;1461;0;0;0;0;8;0;1494;0;0;0;0;9;0;775;0;0;0;0
06.12.18;18:40:00;1;553;10109;0;2;0;1476;0;0;0;0;3;0;850;0;0;0;0;4;0;1174;0;0;0;0;5;0;3401;2;0;0;0;0;0;6;0;2387;2;0;0;0;0;0;7;0;1461;0;0;0;0;8;0;1494;0;0;0;0;9;0;775;0;0;0;0
06.12.18;18:35:00;1;707;10063;0;2;0;1476;0;0;0;0;3;0;850;0;0;0;0;4;0;1174;0;0;0;0;5;0;3401;2;0;0;0;0;0;6;0;2387;2;0;0;0;0;0;7;0;1461;0;0;0;0;8;0;1494;0;0;0;0;9;0;775;0;0;0;0
06.12.18;18:30:00;1;560;10015;0;2;0;1476;0;0;0;0;3;0;850;0;0;0;0;4;0;1174;0;0;0;0;5;0;3401;2;0;0;0;0;0;6;0;2387;2;0;0;0;0;0;7;0;1461;0;0;0;0;8;0;1494;0;0;0;0;9;0;775;0;0;0;0
06.12.18;18:25:00;1;1673;9957;0;2;0;1476;0;0;0;0;3;0;850;0;0;0;0;4;0;1174;0;0;0;0;5;0;3401;2;0;0;0;0;0;6;0;2387;2;0;0;0;0;0;7;0;1461;0;0;0;0;8;0;1494;0;0;0;0;9;0;775;0;0;0;0
06.12.18;18:20:00;1;587;9831;0;2;0;1476;0;0;0;0;3;0;850;0;0;0;0;4;0;1174;0;0;0;0;5;0;3401;2;0;0;0;0;0;6;0;2387;2;0;0;0;0;0;7;0;1461;0;0;0;0;8;0;1494;0;0;0;0;9;0;775;0;0;0;0
06.12.18;18:15:00;1;638;9781;0;2;0;1476;0;0;0;0;3;0;850;0;0;0;0;4;0;1174;0;0;0;0;5;0;3401;2;0;0;0;0;0;6;0;2387;2;0;0;0;0;0;7;0;1461;0;0;0;0;8;0;1494;0;0;0;0;9;0;775;0;0;0;0
06.12.18;18:10:00;1;620;9728;0;2;0;1476;0;0;0;0;3;0;850;0;0;0;0;4;0;1174;0;0;0;0;5;0;3401;2;0;0;0;0;0;6;0;2387;2;0;0;0;0;0;7;0;1461;0;0;0;0;8;0;1494;0;0;0;0;9;0;775;0;0;0;0
06.12.18;18:05:00;1;647;9676;0;2;0;1476;0;0;0;0;3;0;850;0;0;0;0;4;0;1174;0;0;0;0;5;0;3401;2;0;0;0;0;0;6;0;2387;2;0;0;0;0;0;7;0;1461;0;0;0;0;8;0;1494;0;0;0;0;9;0;775;0;0;0;0
06.12.18;18:00:00;1;615;9622;0;2;0;1476;0;0;0;0;3;0;850;0;0;0;0;4;0;1174;0;0;0;0;5;0;3401;2;0;0;0;0;0;6;0;2387;2;0;0;0;0;0;7;0;1461;0;0;0;0;8;0;1494;0;0;0;0;9;0;775;0;0;0;0
06.12.18;17:55:00;1;614;9572;0;2;0;1476;0;0;0;0;3;0;850;0;0;0;0;4;0;1174;0;0;0;0;5;0;3401;2;0;0;0;0;0;6;0;2387;2;0;0;0;0;0;7;0;1461;0;0;0;0;8;0;1494;0;0;0;0;9;0;775;0;0;0;0
06.12.18;17:50:00;1;674;9520;0;2;0;1476;0;0;0;0;3;0;850;0;0;0;0;4;0;1174;0;0;0;0;5;0;3401;2;0;0;0;0;0;6;0;2387;2;0;0;0;0;0;7;0;1461;0;0;0;0;8;0;1494;0;0;0;0;9;0;775;0;0;0;0
06.12.18;17:45:00;1;646;9464;0;2;0;1476;0;0;0;0;3;0;850;0;0;0;0;4;0;1174;0;0;0;0;5;0;3401;2;0;0;0;0;0;6;0;2387;2;0;0;0;0;0;7;0;1461;0;0;0;0;8;0;1494;0;0;0;0;9;0;775;0;0;0;0
06.12.18;17:40:00;1;678;9410;0;2;0;1476;0;0;0;0;3;0;850;0;0;0;0;4;0;1174;0;0;0;0;5;0;3401;2;0;0;0;0;0;6;0;2387;2;0;0;0;0;0;7;0;1461;0;0;0;0;8;0;1494;0;0;0;0;9;0;775;0;0;0;0
06.12.18;17:35:00;1;620;9359;0;2;0;1476;0;0;0;0;3;0;850;0;0;0;0;4;0;1174;0;0;0;0;5;0;3401;2;0;0;0;0;0;6;0;2387;2;0;0;0;0;0;7;0;1461;0;0;0;0;8;0;1494;0;0;0;0;9;0;775;0;0;0;0
06.12.18;17:30:00;1;568;9308;0;2;0;1476;0;0;0;0;3;0;850;0;0;0;0;4;0;1174;0;0;0;0;5;0;3401;2;0;0;0;0;0;6;0;2387;2;0;0;0;0;0;7;0;1461;0;0;0;0;8;0;1494;0;0;0;0;9;0;775;0;0;0;0
06.12.18;17:25:00;1;499;9260;0;2;0;1476;0;0;0;0;3;0;850;0;0;0;0;4;0;1174;0;0;0;0;5;0;3401;2;0;0;0;0;0;6;0;2387;2;0;0;0;0;0;7;0;1461;0;0;0;0;8;0;1494;0;0;0;0;9;0;775;0;0;0;0
06.12.18;17:20:00;1;312;9222;0;2;0;1476;0;0;0;0;3;0;850;0;0;0;0;4;0;1174;0;0;0;0;5;0;3401;2;0;0;0;0;0;6;0;2387;2;0;0;0;0;0;7;0;1461;0;0;0;0;8;0;1494;0;0;0;0;9;0;775;0;0;0;0
06.12.18;17:15:00;1;307;9196;0;2;0;1476;0;0;0;0;3;0;850;0;0;0;0;4;0;1174;0;0;0;0;5;0;3401;2;0;0;0;0;0;6;0;2387;2;0;0;0;0;0;7;0;1461;0;0;0;0;8;0;1494;0;0;0;0;9;0;775;0;0;0;0
06.12.18;17:10:00;1;447;9170;0;2;0;1476;0;0;0;0;3;0;850;0;0;0;0;4;0;1174;0;0;0;0;5;0;3401;2;0;0;0;0;0;6;0;2387;2;0;0;0;0;0;7;0;1461;0;0;0;0;8;0;1494;0;0;0;0;9;0;775;0;0;0;0
06.12.18;17:05:00;1;377;9132;0;2;0;1476;0;0;0;0;3;0;850;0;0;0;0;4;0;1174;0;0;0;0;5;0;3401;2;0;0;0;0;0;6;0;2387;2;0;0;0;0;0;7;0;1461;0;0;0;0;8;0;1494;0;0;0;0;9;0;775;0;0;0;0
06.12.18;17:00:00;1;459;9096;0;2;0;1476;0;0;0;0;3;0;850;0;0;0;0;4;0;1174;0;0;0;0;5;0;3401;2;0;0;0;0;0;6;0;2387;2;0;0;0;0;0;7;0;1461;0;0;0;0;8;0;1494;0;0;0;0;9;0;775;0;0;0;0
06.12.18;16:55:00;1;525;9057;0;2;0;1476;0;0;0;0;3;0;850;0;0;0;0;4;0;1174;0;0;0;0;5;0;3401;2;0;0;0;0;0;6;0;2387;2;0;0;0;0;0;7;0;1461;0;0;0;0;8;0;1494;0;0;0;0;9;0;775;0;0;0;0
06.12.18;16:50:00;1;545;9014;0;2;0;1476;0;0;0;0;3;0;850;0;0;0;0;4;0;1174;0;0;0;0;5;0;3401;2;0;0;0;0;0;6;0;2387;2;0;0;0;0;0;7;0;1461;0;0;0;0;8;0;1494;0;0;0;0;9;0;775;0;0;0;0
06.12.18;16:45:00;1;505;8971;0;2;0;1476;0;0;0;0;3;0;850;0;0;0;0;4;0;1174;0;0;0;0;5;0;3401;2;0;0;0;0;0;6;0;2387;2;0;0;0;0;0;7;0;1461;0;0;0;0;8;0;1494;0;0;0;0;9;0;775;0;0;0;0
06.12.18;16:40:00;1;2533;8928;0;2;0;1476;0;0;0;0;3;0;850;0;0;0;0;4;0;1174;0;0;0;0;5;0;3401;2;0;0;0;0;0;6;0;2387;2;0;0;0;0;0;7;0;1461;0;0;0;0;8;0;1494;0;0;0;0;9;0;775;0;0;0;0
06.12.18;16:35:00;1;2344;8735;0;2;0;1476;0;0;0;0;3;0;850;0;0;41;2;4;0;1174;0;0;0;0;5;0;3401;2;0;0;0;0;0;6;0;2387;2;0;0;0;0;0;7;0;1461;0;0;0;0;8;0;1494;0;0;0;0;9;0;775;0;0;0;0
06.12.18;16:30:00;1;2384;8540;0;2;0;1476;0;0;0;0;3;0;850;7;0;291;12;4;0;1174;0;0;0;0;5;0;3401;2;0;0;0;0;0;6;0;2387;2;0;0;0;0;0;7;0;1461;0;0;0;0;8;0;1494;0;0;0;0;9;0;775;0;0;0;0
06.12.18;16:25:00;1;726;8351;0;2;0;1476;0;0;0;0;3;0;850;7;0;147;6;4;0;1174;0;0;0;0;5;0;3401;2;0;0;0;0;0;6;0;2387;2;0;0;0;0;0;7;0;1461;0;0;0;0;8;0;1494;0;0;0;0;9;0;775;0;0;0;0
06.12.18;16:20:00;1;1220;8259;0;2;0;1476;0;0;0;0;3;0;850;0;0;109;5;4;0;1174;0;0;0;0;5;0;3401;2;0;0;0;0;0;6;0;2387;2;0;0;0;0;0;7;0;1461;0;0;0;0;8;0;1494;0;0;0;0;9;0;775;0;0;0;0
06.12.18;16:15:00;1;436;8179;0;2;0;1476;0;0;214;7;3;0;850;6;0;290;12;4;0;1174;0;0;0;0;5;0;3401;2;0;0;0;0;0;6;0;2387;2;0;0;0;0;0;7;0;1461;0;0;0;0;8;0;1494;0;0;0;0;9;0;775;0;0;0;0
06.12.18;16:10:00;1;474;8143;0;2;0;1476;6;0;284;9;3;0;850;6;0;316;12;4;0;1174;0;0;63;6;5;0;3401;2;0;0;28;28;2;6;0;2387;0;0;0;0;0;0;7;0;1461;0;0;0;0;8;0;1494;0;0;0;0;9;0;775;0;0;0;0
06.12.18;16:05:00;1;2458;8078;0;2;0;1476;6;0;319;9;3;0;850;6;0;386;13;4;0;1174;1;0;106;8;5;0;3401;1;0;3;282;280;19;6;0;2387;0;0;0;0;0;1;7;0;1461;0;0;0;0;8;0;1494;0;0;0;0;9;0;775;0;0;0;0
06.12.18;16:00:00;1;2307;7843;0;2;0;1476;6;0;335;9;3;0;850;6;0;412;13;4;0;1174;1;0;122;8;5;0;3401;2;0;0;245;243;16;6;0;2387;23;7;4;313;263;18;7;0;1461;0;0;0;0;8;0;1494;0;0;126;6;9;0;775;0;0;133;4
06.12.18;15:55:00;1;3820;7649;0;2;0;1476;6;0;356;9;3;0;850;6;0;432;13;4;0;1174;1;0;149;8;5;0;3401;23;0;1;387;435;20;6;0;2387;23;7;6;380;317;19;7;0;1461;0;0;61;2;8;0;1494;6;0;180;7;9;0;775;6;0;312;9
06.12.18;15:50:00;1;3833;7313;0;2;0;1476;6;0;379;9;3;0;850;3;4;441;13;4;0;1174;1;0;188;8;5;0;3401;26;0;0;415;598;20;6;0;2387;23;5;4;181;551;19;7;0;1461;0;0;298;10;8;0;1494;6;0;110;4;9;0;775;6;0;308;7
06.12.18;15:45:00;1;2880;7021;0;2;0;1476;6;0;384;9;3;1;850;6;4;436;13;4;0;1174;1;0;196;8;5;0;3401;1;0;0;417;632;20;6;0;2387;23;4;4;181;560;19;7;0;1461;6;0;303;10;8;0;1494;6;0;310;10;9;0;775;6;0;408;9
06.12.18;15:40:00;1;3108;6752;0;2;0;1476;6;0;394;9;3;1;850;6;2;480;13;4;0;1174;1;0;212;9;5;7;3401;1;1;1;415;656;20;6;0;2387;23;6;5;182;572;19;7;0;1461;0;0;65;2;8;0;1494;6;0;199;6;9;1;775;0;1;118;3
06.12.18;15:35:00;1;2503;6500;0;2;0;1476;6;0;398;10;3;1;850;6;3;480;13;4;0;1174;1;0;219;9;5;7;3400;1;1;3;420;663;20;6;0;2387;23;4;3;182;577;20;7;0;1461;0;0;168;5;8;0;1494;0;0;70;2;9;0;775;0;0;186;3
06.12.18;15:30:00;1;257;6354;0;2;0;1476;6;0;392;10;3;0;850;6;2;457;13;4;0;1174;1;0;209;9;5;7;3399;1;0;2;414;647;21;6;0;2387;23;5;3;184;570;20;7;0;1461;6;0;202;6;8;0;1494;0;0;202;6;9;0;775;0;0;73;1
06.12.18;15:25:00;1;210;6333;0;2;0;1476;6;0;399;10;3;1;850;6;3;482;13;4;0;1174;1;0;220;9;5;10;3398;1;2;6;415;657;21;6;0;2387;23;5;5;182;578;21;7;0;1461;6;0;335;11;8;0;1494;6;0;417;13;9;0;775;0;0;191;3
06.12.18;15:20:00;1;210;6315;0;2;0;1476;6;0;401;10;3;3;850;4;7;457;13;4;0;1174;1;0;223;9;5;10;3398;1;1;3;422;673;21;6;0;2387;23;3;4;347;580;21;7;0;1461;3;0;245;8;8;0;1494;3;0;409;13;9;0;775;6;0;456;9
06.12.18;15:15:00;1;211;6297;0;2;0;1476;6;0;409;10;3;0;849;6;5;495;13;4;0;1174;3;0;211;10;5;60;3397;1;13;20;389;620;22;6;40;2387;1;18;26;487;477;22;7;0;1461;6;2;429;14;8;1;1494;6;2;434;13;9;0;775;6;0;397;8
06.12.18;15:10:00;1;211;6280;0;2;3;1476;6;7;407;10;3;0;849;6;5;509;13;4;0;1174;3;0;230;10;5;96;3391;4;30;36;379;603;22;6;62;2383;4;27;34;460;451;22;7;0;1461;0;0;80;2;8;0;1494;6;0;243;7;9;4;775;3;5;312;6
06.12.18;15:05:00;1;212;6262;0;2;0;1476;6;0;423;11;3;1;849;6;6;511;14;4;0;1174;3;0;229;10;5;107;3383;4;38;35;379;603;22;6;71;2378;4;38;46;460;451;22;7;0;1461;0;5;368;11;8;0;1494;6;4;464;14;9;0;774;6;4;514;10
06.12.18;15:00:00;1;251;6244;0;2;2;1476;3;7;406;11;3;2;849;6;4;509;14;4;0;1174;3;0;228;10;5;89;3374;4;24;31;379;603;22;6;59;2372;4;22;30;460;451;22;7;0;1461;6;1;376;12;8;1;1494;6;1;460;14;9;0;774;6;0;265;5
06.12.18;14:55:00;1;253;6223;0;2;12;1476;3;22;396;11;3;2;849;6;6;513;14;4;6;1174;3;6;199;10;5;114;3367;4;41;43;379;603;22;6;72;2367;4;27;32;460;451;22;7;0;1461;0;0;100;3;8;1;1494;6;5;468;14;9;2;774;6;4;514;10
06.12.18;14:50:00;1;257;6202;0;2;81;1474;4;105;371;12;3;10;849;4;21;515;14;4;41;1173;3;43;197;10;5;217;3356;4;105;91;379;603;22;6;146;2360;4;65;75;459;451;22;7;59;1461;4;90;401;15;8;42;1494;4;61;277;9;9;6;774;6;8;357;6
06.12.18;14:45:00;1;218;6180;0;2;61;1468;4;86;376;12;3;12;848;3;25;505;14;4;24;1169;3;25;198;10;5;187;3338;4;84;74;379;603;22;6;124;2348;4;61;75;460;451;22;7;35;1456;4;48;319;12;8;9;1484;0;14;71;3;9;6;774;0;10;431;8
06.12.18;14:40:00;1;397;6162;0;2;68;1462;4;92;369;12;3;7;846;6;13;535;14;4;29;1167;3;30;198;11;5;195;3323;4;89;78;379;603;22;6;127;2338;4;57;69;460;451;22;7;10;1453;0;18;88;3;8;43;1483;4;82;418;15;9;9;773;3;18;511;10
06.12.18;14:35:00;1;536;6113;0;2;111;1457;4;137;369;12;3;43;846;6;63;526;14;4;67;1165;3;70;204;11;5;277;3306;4;134;116;379;603;22;6;181;2327;4;89;96;459;451;22;7;105;1452;4;128;449;15;8;43;1479;0;57;182;6;9;16;772;3;20;565;10
06.12.18;14:30:00;1;2199;6067;0;2;186;1448;4;213;372;12;3;104;842;4;141;518;15;4;139;1160;5;144;226;11;5;425;3282;4;211;183;399;611;22;6;297;2311;4;122;156;459;540;22;7;157;1443;4;186;359;12;8;201;1473;4;231;448;15;9;84;771;4;105;405;8
06.12.18;14:25:00;1;2591;5855;0;2;277;1432;4;306;387;12;3;165;834;4;201;518;15;4;224;1148;5;233;234;11;5;599;3246;4;304;263;399;649;22;6;413;2286;4;187;231;460;562;22;7;270;1427;4;308;479;15;8;278;1457;4;317;466;15;9;125;760;0;149;412;8
06.12.18;14:20:00;1;2751;5635;0;2;194;1410;4;223;376;12;3;115;820;4;151;505;15;4;147;1130;5;153;229;11;5;446;3196;4;220;194;393;609;22;6;311;2252;4;146;179;459;559;22;7;143;1404;4;178;368;12;8;183;1434;4;220;445;15;9;36;741;0;48;201;4
06.12.18;14:15:00;1;2632;5406;0;2;217;1393;4;245;379;12;3;126;810;4;163;516;15;4;171;1117;5;178;230;11;5;490;3159;4;240;212;405;642;22;6;339;2226;4;158;194;465;561;22;7;120;1386;0;144;286;9;8;167;1419;4;191;355;12;9;111;739;4;137;511;11
06.12.18;14:10:00;1;2631;5187;0;2;214;1375;4;255;379;12;3;129;800;4;169;521;15;4;182;1103;5;189;232;11;5;505;3119;4;250;217;407;629;22;6;377;2197;4;198;214;581;554;22;7;208;1373;4;243;473;15;8;181;1395;0;205;361;12;9;114;730;4;140;511;11
06.12.18;14:05:00;1;976;4967;0;2;413;1358;4;452;405;12;3;256;789;4;298;510;15;4;353;1088;5;368;236;10;5;863;3076;4;436;379;420;680;22;6;649;2165;4;312;328;592;576;22;7;376;1351;0;421;381;12;8;447;1382;4;484;484;15;9;235;720;4;266;535;11
06.12.18;14:00:00;1;557;4918;0;2;364;1324;4;397;400;12;3;226;768;4;265;510;14;4;300;1059;5;313;239;10;5;755;3002;4;383;325;413;663;22;6;548;2110;4;285;301;543;538;22;7;447;1321;4;506;479;15;8;382;1345;4;410;382;12;9;256;700;4;286;520;11
06.12.18;13:55:00;1;557;4871;0;2;181;1293;4;210;386;12;3;103;749;4;141;516;14;4;137;1034;5;143;231;10;5;409;2941;4;199;182;382;603;22;6;269;2066;4;116;125;460;451;22;7;184;1283;4;225;470;15;8;197;1304;4;224;484;14;9;111;679;4;136;496;10
06.12.18;13:50:00;1;538;4825;0;2;169;1277;4;198;385;12;3;98;740;4;134;498;14;4;126;1022;5;131;224;10;5;389;2907;4;193;171;379;603;22;6;256;2044;4;122;136;459;451;22;7;125;1267;4;171;476;15;8;134;1287;4;173;485;14;9;37;669;4;49;224;5
06.12.18;13:45:00;1;514;4780;0;2;103;1263;4;131;373;12;3;24;732;4;38;521;14;4;58;1011;3;60;198;10;5;266;2876;4;124;114;379;603;22;6;177;2023;4;80;87;460;451;22;7;64;1257;4;98;474;15;8;74;1276;4;108;450;14;9;8;662;6;11;434;8
06.12.18;13:40:00;1;514;4738;0;2;135;1255;4;163;377;12;3;67;730;6;94;500;14;4;91;1006;3;94;216;10;5;330;2854;4;165;141;382;603;22;6;213;2008;4;127;141;460;451;22;7;129;1251;4;154;417;15;8;124;1270;4;159;445;14;9;49;659;0;61;283;6
06.12.18;13:35:00;1;515;4695;0;2;194;1244;4;222;374;12;3;110;725;4;150;515;15;4;148;1000;5;155;223;10;5;457;2826;4;227;191;412;603;22;6;294;1990;4;174;181;460;451;22;7;161;1241;4;178;368;12;8;206;1260;4;232;445;14;9;83;656;4;103;400;8
06.12.18;13:30:00;1;514;4652;0;2;188;1228;4;214;364;12;3;107;716;4;147;504;15;4;146;987;5;152;229;10;5;430;2788;4;215;184;405;603;22;6;282;1965;4;127;141;459;465;22;7;202;1225;4;219;475;15;8;189;1243;4;228;471;14;9;42;641;0;52;205;4
06.12.18;13:25:00;1;514;4608;0;2;255;1212;4;286;389;12;3;152;707;4;190;507;15;4;204;975;5;212;229;10;5;570;2752;4;277;248;402;645;22;6;385;1942;4;165;208;459;562;22;7;220;1208;4;255;460;15;8;174;1227;4;205;376;11;9;118;638;4;142;503;11